Weaverville, CA

5:30 PM PST on December 16, 2017 (GMT -0800)
Weaverville

Weather History for KO54 - January, 2013

Change the Weather History Date:

Wednesday, January 23, 2013

  Actual Average (KRDD) Record (KRDD)
Temperature  
Mean Temperature 36 °F -  
Max Temperature 41 °F 52 °F 75 °F (2015)
Min Temperature 30 °F 36 °F 26 °F (2007)
Degree Days  
Heating Degree Days 30    
Moisture  
Dew Point 35 °F    
Average Humidity 95    
Maximum Humidity 100    
Minimum Humidity 87    
Precipitation  
Precipitation 0.72 in - - ()
Sea Level Pressure  
Sea Level Pressure 30.06 in    
Wind  
Wind Speed 1 mph (SSE)    
Max Wind Speed 5 mph    
Max Gust Speed -    
Visibility 4 miles    
Events      
Averages and records for this station are not official NWS values.
T = Trace of Precipitation, MM = Missing Value Source: NWS Daily Summary

Daily Weather History Graph

Daily Weather History Graph

Search for Another Location

Airport or City:

Trip Planner

Search our weather history database for the weather conditions in past years. The results will help you decide how hot, cold, wet, or windy it might be!

Date:

Astronomy

Jan. 23, 2013 Rise Set
Actual Time 7:28 AM PST 5:18 PM PST
Civil Twilight 6:59 AM PST 5:48 PM PST
Nautical Twilight 6:26 AM PST 6:21 PM PST
Astronomical Twilight 5:53 AM PST 6:54 PM PST
Moon 2:33 PM PST (1/23) 4:45 AM PST (1/23)
Length of Visible Light 10h 48m
Length of Day
9h 49m
Waxing Gibbous, 90% of the Moon is Illuminated
Jan 23
Waxing Gibbous
Jan 26
Full
Feb 3
Last Quarter
Feb 9
New
Feb 17
First Quarter

Hourly Weather History & Observations

Time (PST) Temp. Windchill Dew Point Humidity Pressure Visibility Wind Dir Wind Speed Gust Speed Precip Events Conditions
12:15 AM 32.0 °F - 28.4 °F 87% 30.05 in 8.0 mi Calm Calm - N/A   Unknown
12:35 AM 30.2 °F - 28.4 °F 93% 30.06 in 7.0 mi Calm Calm - N/A   Unknown
12:55 AM 30.2 °F 26.7 °F 28.4 °F 93% 30.05 in 5.0 mi East 3.5 mph - N/A   Unknown
1:15 AM 32.0 °F 28.7 °F 28.4 °F 87% 30.05 in 5.0 mi ENE 3.5 mph - N/A   Unknown
1:55 AM 32.0 °F - 28.4 °F 87% 30.05 in 7.0 mi Calm Calm - N/A   Unknown
2:15 AM 32.0 °F - 28.4 °F 87% 30.04 in 8.0 mi Calm Calm - N/A   Unknown
2:35 AM 32.0 °F - 28.4 °F 87% 30.04 in 10.0 mi Calm Calm - N/A   Unknown
2:55 AM 32.0 °F - 28.4 °F 87% 30.03 in 10.0 mi Calm Calm - N/A   Unknown
3:15 AM 32.0 °F - 30.2 °F 93% 30.03 in 10.0 mi Calm Calm - N/A   Unknown
3:35 AM 32.0 °F - 30.2 °F 93% 30.03 in 10.0 mi Calm Calm - N/A   Unknown
3:55 AM 32.0 °F - 30.2 °F 93% 30.01 in 10.0 mi Calm Calm - N/A   Unknown
4:15 AM 32.0 °F - 30.2 °F 93% 30.01 in 10.0 mi Calm Calm - N/A   Unknown
4:35 AM 32.0 °F 28.7 °F 30.2 °F 93% 30.00 in 10.0 mi South 3.5 mph - N/A   Unknown
4:55 AM 32.0 °F 28.7 °F 28.4 °F 87% 30.00 in 10.0 mi SW 3.5 mph - N/A   Unknown
5:15 AM 32.0 °F - 30.2 °F 93% 29.99 in 8.0 mi Calm Calm - N/A   Unknown
5:35 AM 32.0 °F - 30.2 °F 93% 29.99 in 9.0 mi Calm Calm - N/A   Unknown
5:55 AM 32.0 °F - 30.2 °F 93% 29.98 in 8.0 mi Calm Calm - N/A   Unknown
6:15 AM 32.0 °F 28.7 °F 30.2 °F 93% 29.98 in 9.0 mi South 3.5 mph - N/A   Unknown
6:35 AM 32.0 °F - 30.2 °F 93% 29.98 in 7.0 mi Calm Calm - N/A   Unknown
6:55 AM 33.8 °F - 32.0 °F 93% 30.00 in 7.0 mi Calm Calm - N/A   Unknown
7:15 AM 33.8 °F - 32.0 °F 93% 30.00 in 5.0 mi Calm Calm - 0.01 in   Unknown
7:35 AM 33.8 °F 29.6 °F 32.0 °F 93% 30.00 in 4.0 mi NNE 4.6 mph - 0.02 in   Unknown
7:55 AM 33.8 °F 29.6 °F 32.0 °F 93% 29.99 in 3.0 mi South 4.6 mph - 0.04 in   Unknown
8:15 AM 33.8 °F - 32.0 °F 93% 30.00 in 2.0 mi Calm Calm - 0.03 in   Unknown
8:35 AM 35.6 °F 32.8 °F 33.8 °F 93% 29.99 in 5.0 mi South 3.5 mph - 0.03 in   Unknown
8:55 AM 35.6 °F - 33.8 °F 93% 30.01 in 3.0 mi Calm Calm - 0.03 in   Unknown
9:15 AM 35.6 °F - 33.8 °F 93% 30.01 in 1.5 mi Calm Calm - 0.01 in   Unknown
9:35 AM 35.6 °F - 35.6 °F 100% 30.04 in 1.0 mi Calm Calm - 0.04 in   Unknown
9:55 AM 37.4 °F - 35.6 °F 93% 30.05 in 2.0 mi Calm Calm - 0.05 in   Unknown
10:15 AM 37.4 °F - 35.6 °F 93% 30.05 in 0.8 mi Calm Calm - N/A   Unknown
10:35 AM 37.4 °F 34.9 °F 35.6 °F 93% 30.05 in 2.0 mi South 3.5 mph - N/A   Unknown
10:55 AM 37.4 °F - 35.6 °F 93% 30.05 in 1.0 mi Calm Calm - 0.01 in   Unknown
11:15 AM 37.4 °F - 35.6 °F 93% 30.07 in 2.0 mi Calm Calm - N/A   Unknown
11:35 AM 37.4 °F - 37.4 °F 100% 30.05 in 2.0 mi Calm Calm - N/A   Unknown
11:55 AM 37.4 °F - 37.4 °F 100% 30.04 in 3.0 mi Calm Calm - N/A   Unknown
12:15 PM 37.4 °F - 37.4 °F 100% 30.04 in 4.0 mi Calm Calm - N/A   Unknown
12:55 PM 39.2 °F - 37.4 °F 93% 30.04 in 5.0 mi Calm Calm - N/A   Unknown
1:15 PM 39.2 °F - 39.2 °F 100% 30.05 in 2.5 mi Calm Calm - N/A   Unknown
1:35 PM 39.2 °F - 39.2 °F 100% 30.04 in 1.5 mi Calm Calm - 0.01 in   Unknown
1:55 PM 39.2 °F - 39.2 °F 100% 30.03 in 1.5 mi Calm Calm - 0.04 in   Unknown
2:15 PM 39.2 °F - 39.2 °F 100% 30.03 in 1.0 mi Calm Calm - 0.02 in   Unknown
2:35 PM 39.2 °F - 39.2 °F 100% 30.02 in 0.8 mi Calm Calm - 0.04 in   Unknown
2:55 PM 39.2 °F 35.9 °F 39.2 °F 100% 30.02 in 1.0 mi SSW 4.6 mph - 0.05 in   Unknown
3:15 PM 39.2 °F 37.0 °F 39.2 °F 100% 30.03 in 1.0 mi SSW 3.5 mph - 0.02 in   Unknown
3:35 PM 41.0 °F - 39.2 °F 93% 30.05 in 2.5 mi Calm Calm - 0.07 in   Unknown
3:55 PM 39.2 °F 37.0 °F 39.2 °F 100% 30.05 in 1.0 mi ENE 3.5 mph - 0.10 in   Unknown
4:15 PM 41.0 °F - 39.2 °F 93% 30.06 in 2.5 mi Calm Calm - 0.02 in   Unknown
4:35 PM 41.0 °F - 39.2 °F 93% 30.07 in 3.0 mi Calm Calm - 0.05 in   Unknown
4:55 PM 41.0 °F - 39.2 °F 93% 30.07 in 2.5 mi Calm Calm - 0.08 in   Unknown
5:15 PM 39.2 °F - 39.2 °F 100% 30.08 in 1.8 mi Calm Calm - 0.02 in   Unknown
5:35 PM 39.2 °F - 39.2 °F 100% 30.08 in 1.0 mi Calm Calm - 0.05 in   Unknown
5:55 PM 39.2 °F - 39.2 °F 100% 30.08 in 1.0 mi Calm Calm - 0.08 in   Unknown
6:15 PM 39.2 °F - 39.2 °F 100% 30.09 in 0.8 mi Calm Calm - 0.01 in   Unknown
6:35 PM 39.2 °F - 39.2 °F 100% 30.09 in 0.8 mi Calm Calm - 0.03 in   Unknown
6:55 PM 39.2 °F - 39.2 °F 100% 30.10 in 1.0 mi Calm Calm - 0.05 in   Unknown
7:15 PM 39.2 °F - 37.4 °F 93% 30.11 in 0.5 mi Calm Calm - 0.01 in   Unknown
7:35 PM 39.2 °F - 37.4 °F 93% 30.11 in 0.8 mi Calm Calm - 0.03 in   Unknown
7:55 PM 39.2 °F - 37.4 °F 93% 30.11 in 0.5 mi Calm Calm - 0.05 in   Unknown
8:15 PM 39.2 °F - 37.4 °F 93% 30.12 in 0.5 mi Calm Calm - 0.01 in   Unknown
8:35 PM 37.4 °F - 37.4 °F 100% 30.13 in 0.8 mi Calm Calm - 0.03 in   Unknown
8:55 PM 37.4 °F - 37.4 °F 100% 30.13 in 1.0 mi Calm Calm - 0.04 in   Unknown
9:15 PM 37.4 °F - 37.4 °F 100% 30.14 in 1.2 mi Calm Calm - 0.01 in   Unknown
9:35 PM 37.4 °F - 37.4 °F 100% 30.14 in 0.8 mi Calm Calm - 0.01 in   Unknown
9:55 PM 37.4 °F - 37.4 °F 100% 30.14 in 0.8 mi Calm Calm - 0.02 in   Unknown
10:15 PM 37.4 °F - 37.4 °F 100% 30.15 in 0.8 mi Calm Calm - 0.01 in   Unknown
10:35 PM 37.4 °F - 37.4 °F 100% 30.14 in 1.2 mi Calm Calm - 0.03 in   Unknown
10:55 PM 37.4 °F - 37.4 °F 100% 30.14 in 0.8 mi Calm Calm - 0.05 in   Unknown
11:15 PM 37.4 °F - 37.4 °F 100% 30.14 in 1.0 mi Calm Calm - 0.01 in   Unknown
11:35 PM 37.4 °F - 35.6 °F 93% 30.15 in 1.0 mi Calm Calm - 0.02 in   Unknown
11:55 PM 37.4 °F - 37.4 °F 100% 30.15 in 1.2 mi Calm Calm - 0.03 in   Unknown